Miscellaneous Local Product
Issued by NWS Hastings, NE

Home | Current Version | Previous Version | Text Only | Print | Product List | Glossary Off
Versions: 1 2 3 4 5 6 7 8 9 10 11 12 13 14 15 16 17 18 19 20 21 22 23 24 25 26 27 28 29 30 31 32 33 34 35 36 37 38 39 40 41 42 43 44 45 46 47 48 49 50

000
AXUS43 KGID 211602
MISGRI

GID CWA HOURLY WEATHER ROUNDUP
NATIONAL WEATHER SERVICE HASTINGS NE
1000 AM CST FRI NOV 21 2014

NOTE: "FAIR" INDICATES FEW OR NO CLOUDS BELOW 12,000 FEET WITH NO
SIGNIFICANT WEATHER AND/OR OBSTRUCTIONS TO VISIBILITY.

...SOUTH CENTRAL NEBRASKA...

CITY           SKY/WX    TMP DP  RH WIND       PRES   REMARKS
GRAND ISLAND   PTSUNNY   29  20  69 S10       30.12F WCI  20
HASTINGS       CLOUDY    29  20  69 S9        30.10F WCI  20
KEARNEY        PTSUNNY   30  21  69 S10       30.10F WCI  21
ORD            PTSUNNY   32  24  72 S10       30.05S WCI  24
YORK           CLOUDY    25  21  86 S7        30.14S WCI  17
AURORA         CLOUDY    27  21  79 S10G16    30.12S WCI  17
LEXINGTON      PTSUNNY   34  25  71 S12       30.05F WCI  25
HOLDREGE       PTSUNNY   30  22  72 S6        30.07F WCI  24
HEBRON         CLOUDY    30  22  71 S9        30.15S WCI  22

...NEBRASKA PANHANDLE...

CITY           SKY/WX    TMP DP  RH WIND       PRES   REMARKS
CHADRON        PTSUNNY   30  25  81 CALM      29.89S
ALLIANCE       CLOUDY    38  25  59 S5        29.91S WCI  34
SCOTTSBLUFF    MOSUNNY   34  22  61 E3        29.94R
SIDNEY         CLOUDY    40  25  55 NW6       29.96R

...WESTERN AND NORTH CENTRAL NEBRASKA...

CITY           SKY/WX    TMP DP  RH WIND       PRES   REMARKS
VALENTINE      PTSUNNY   36  26  67 SW8       29.89S WCI  30
AINSWORTH      CLOUDY    32  24  73 SW17      29.92S WCI  21
ONEILL         PTSUNNY   32  27  80 S15G22    29.98F WCI  22
BROKEN BOW     CLOUDY    34  25  69 SW10      30.02F WCI  26
IMPERIAL       CLOUDY    35  26  69 S7        30.00S WCI  29
NORTH PLATTE   PTSUNNY   31  24  75 S7        30.00F WCI  24
MCCOOK         PTSUNNY   38  27  64 S6        30.05S WCI  33

...EASTERN NEBRASKA...

CITY           SKY/WX    TMP DP  RH WIND       PRES   REMARKS
NORFOLK        MOSUNNY   27  20  75 S12       30.11F WCI  17
SO SIOUX CITY  MOSUNNY   26  18  71 SE10      30.16F WCI  16
TEKAMAH        SUNNY     28  19  69 S14       30.19F WCI  17
COLUMBUS       PTSUNNY   27  19  74 S9        30.16S WCI  17
ALBION         PTSUNNY   27  20  76 S13       30.10F WCI  16
OMAHA EPPLEY   PTSUNNY   28  19  69 SE13      30.21F WCI  17
OFFUTT AFB     SUNNY     28  19  68 SE13      30.20F WCI  18
MILLARD        SUNNY     29  20  69 SE14      30.19F WCI  18
LINCOLN        PTSUNNY   27  20  75 S8        30.19F WCI  19
NEBRASKA CITY  MOSUNNY   26  17  68 SE7       30.20F WCI  18
BEATRICE       CLOUDY    31  22  69 S9        30.16F WCI  23
FALLS CITY     PTSUNNY   28  20  71 SE10      30.20F WCI  19

...NORTHERN KANSAS...

CITY           SKY/WX    TMP DP  RH WIND       PRES   REMARKS
GOODLAND       SUNNY     35  30  82 S12       30.01S WCI  27
HILL CITY      PTSUNNY   36  25  64 CALM      30.08F
NORTON         CLOUDY    30  21  69 CALM      30.07R
PHILLIPSBURG   SUNNY     30  23  74 E6        30.11S WCI  24
SMITH CENTER   SUNNY     28  19  69 E6        30.12F WCI  22
BELOIT         SUNNY     32  21  64 SE5       30.14F WCI  27
HAYS           MOSUNNY   32  18  55 SE5       30.10F WCI  27
RUSSELL        SUNNY     34  22  61 CALM      30.09F
CONCORDIA      PTSUNNY   32  22  66 SE8       30.15S WCI  25
SALINA         PTSUNNY   31  20  63 SE6       30.15S WCI  25
TOPEKA         MOSUNNY   36  22  56 E9        30.19F WCI  29



USA.gov is the U.S. government's official web portal to all federal, state and local government web resources and services.